Location: Arrodets-la-Barthe
(43.0306°N, 0.2829°E)
Time: 19:42:47
(UTC+00:00)

N. Korean satellite - Visible Passes

Search period start: 08 December 2022 00:00
Search period end: 18 December 2022 00:00
Orbit: 420 x 452 km, 97.3° (Epoch: 08 December)

Date Brightness Start Highest point End Pass type
(mag) Time Alt. Az. Time Alt. Az. Time Alt. Az.
08 Dec 6.3 05:32:29 10° N 05:35:51 63° WNW 05:39:08 10° SSW visible
08 Dec 9.9 17:36:59 10° WSW 17:38:17 12° W 17:39:34 10° WNW visible
09 Dec 8.0 04:53:37 10° NNE 04:56:45 34° E 04:59:49 10° SSE visible
09 Dec 8.2 06:27:10 10° NW 06:28:55 14° WNW 06:30:40 10° W visible
09 Dec 8.3 16:55:48 10° SSW 16:58:57 35° W 17:02:08 10° NNW visible
10 Dec 9.9 04:16:21 10° ENE 04:17:23 11° E 04:18:24 10° ESE visible
10 Dec 6.8 05:46:54 10° N 05:50:05 39° WNW 05:53:12 10° SW visible
11 Dec 7.0 05:07:39 10° NNE 05:10:58 54° E 05:14:13 10° S visible
11 Dec 9.2 17:10:21 10° SSW 17:13:09 24° W 17:15:57 10° NW visible
12 Dec 9.3 04:29:22 10° NE 04:31:35 16° E 04:33:46 10° SE visible
12 Dec 7.3 06:01:14 10° NNW 06:04:05 26° WNW 06:06:54 10° SW visible
13 Dec 6.2 05:21:36 10° NNE 05:24:58 88° ESE 05:28:16 10° SSW visible
13 Dec 9.6 17:25:00 10° SW 17:27:10 16° W 17:29:23 10° NW visible
14 Dec 8.7 04:44:41 22° ENE 04:45:33 24° E 04:48:18 10° SSE visible
14 Dec 7.8 06:18:06 18° WNW 06:18:06 18° WNW 06:20:12 10° WSW visible
15 Dec 6.4 05:39:03 54° WSW 05:39:03 54° WSW 05:41:58 10° SSW visible
15 Dec 10.0 17:40:06 10° WSW 17:41:02 11° W 17:41:59 10° WNW visible
16 Dec 7.9 04:59:46 34° ESE 04:59:46 34° ESE 05:02:22 10° SSE visible
16 Dec8.606:33:09W06:33:09W06:27:36NNWvisible
16 Dec 8.4 16:58:15 10° SSW 17:01:22 33° W 17:04:30 10° NNW visible
17 Dec 9.8 04:20:22 11° ESE 04:20:22 11° ESE 04:20:47 10° ESE visible
17 Dec 7.7 05:53:44 24° WSW 05:53:44 24° WSW 05:55:19 10° SW visible
